User: anonymous
Location: Caltech
(34.1382°N, 118.1253°W)
Time: 04:50:21
(UTC-07:00)
Language:

Meteor 2-4 Rocket - Orbit

View from above orbital plane
View from above orbital plane
View from above satellite
View from above satellite

Ground track
Ground track

The orbit data is extracted from the following two-line orbital elements,

1 11289U 79021B   14271.99694606  .00000081  00000-0  36638-4 0  7328
2 11289 081.2471 052.0656 0076110 168.4516 331.3957 14.11443961830866
Epoch (UTC): 28 September 2014 23:55:36
Eccentricity: 0.0076110
inclination: 81.2471°
perigee height: 799 km
apogee height: 909 km
right ascension of ascending node: 52.0656°
argument of perigee: 168.4516°
revolutions per day: 14.11443961
mean anomaly at epoch: 331.3957°
orbit number at epoch: 83086

The dashed part of the orbit path shows where the satellite is in the earth's shadow,  

DLR